Weather History for LSGS - May, 2013

Change the Weather History Date:

Monday, May 20, 2013

  Actual Average (LSZB) Record (LSZB)
Temperature  
Mean Temperature 54 °F -  
Max Temperature 63 °F 33 °F 78 °F (2004)
Min Temperature 44 °F 23 °F 39 °F (1998)
Degree Days  
Heating Degree Days 12    
Growing Degree Days 4 (Base 50)    
Moisture  
Dew Point 42 °F    
Average Humidity 60    
Maximum Humidity 90    
Minimum Humidity 33    
Precipitation  
Precipitation 0.00 in - - ()
Sea Level Pressure  
Sea Level Pressure 29.94 in    
Wind  
Wind Speed 5 mph ()    
Max Wind Speed 18 mph    
Max Gust Speed -    
Visibility 7.0 miles    
Events      
Averages and records for this station are not official NWS values.
T = Trace of Precipitation, MM = Missing Value Source: Averaged Metar Reports

Daily Weather History Graph

Daily Weather History Graph

Search for Another Location

Airport or City:

Trip Planner

Search our weather history database for the weather conditions in past years. The results will help you decide how hot, cold, wet, or windy it might be!

Date:

Astronomy

May. 20, 2013 Rise Set
Actual Time 5:52 AM CEST 9:02 PM CEST
Civil Twilight 5:16 AM CEST 9:38 PM CEST
Nautical Twilight 4:29 AM CEST 10:25 PM CEST
Astronomical Twilight 3:32 AM CEST 11:23 PM CEST
Moon 3:36 PM CEST (5/20) 2:56 AM CEST (5/20)
Length of Visible Light 16h 22m
Length of Day
15h 10m
Waxing Gibbous, 72% of the Moon is Illuminated
May 20
Waxing Gibbous
May 25
Full
May 31
Last Quarter
Jun 8
New
Jun 16
First Quarter

Hourly Weather History & Observations

Time (CEST) Temp. Dew Point Humidity Pressure Visibility Wind Dir Wind Speed Gust Speed Precip Events Conditions
12:00 AM 51 °F 43 °F 67% 29.96 in - West 1.2 mph - -  
1:00 AM 50 °F 42 °F 67% 29.98 in - WSW 4.6 mph - -  
2:00 AM 49 °F 43 °F 71% 29.98 in 14 mi WNW 2.3 mph - -   Mostly Cloudy
3:00 AM 47 °F 43 °F 82% 29.99 in - East 1.2 mph - -  
4:00 AM 47 °F 44 °F 83% 29.98 in - NW 2.3 mph - -  
6:00 AM 45 °F 43 °F 90% 29.99 in - South 2.3 mph - -  
6:50 AM 44.6 °F 41.0 °F 87% 29.98 in 6.2 mi Calm Calm - N/A   Mostly Cloudy
7:00 AM 45 °F 43 °F 88% 30.00 in - Calm Calm - -  
7:20 AM 46.4 °F 41.0 °F 81% 29.98 in 6.2 mi Variable 1.2 mph - N/A   Mostly Cloudy
7:50 AM 50.0 °F 42.8 °F 76% 29.98 in 6.2 mi Variable 1.2 mph - N/A   Mostly Cloudy
8:00 AM 48 °F 43 °F 76% 29.99 in 16 mi East 1.2 mph - -   Partly Cloudy
8:20 AM 51.8 °F 42.8 °F 71% 29.98 in 6.2 mi Calm Calm - N/A   Mostly Cloudy
8:50 AM 50.0 °F 42.8 °F 76% 29.98 in 6.2 mi Variable 2.3 mph - N/A   Mostly Cloudy
9:00 AM 50 °F 43 °F 71% 29.99 in - West 2.3 mph - -  
9:20 AM 50.0 °F 42.8 °F 76% 29.98 in 6.2 mi Variable 2.3 mph - N/A   Mostly Cloudy
9:50 AM 51.8 °F 42.8 °F 71% 29.98 in 6.2 mi SW 3.5 mph - N/A   Mostly Cloudy
10:00 AM 53 °F 43 °F 58% 29.98 in - West 4.6 mph - -  
10:20 AM 53.6 °F 44.6 °F 72% 29.98 in 6.2 mi WSW 4.6 mph - N/A   Mostly Cloudy
10:50 AM 53.6 °F 44.6 °F 72% 29.98 in 6.2 mi WSW 4.6 mph - N/A   Mostly Cloudy
11:20 AM 53.6 °F 42.8 °F 67% 29.95 in 6.2 mi Variable 2.3 mph - N/A   Mostly Cloudy
11:50 AM 57.2 °F 42.8 °F 59% 29.95 in 6.2 mi Variable 2.3 mph - N/A   Mostly Cloudy
12:00 PM 56 °F 41 °F 46% 29.94 in - West 2.3 mph - -  
12:20 PM 57.2 °F 42.8 °F 59% 29.95 in 6.2 mi SW 3.5 mph - N/A   Mostly Cloudy
12:50 PM 57.2 °F 41.0 °F 55% 29.92 in 6.2 mi Variable 3.5 mph - N/A   Mostly Cloudy
1:00 PM 61 °F 42 °F 38% 29.91 in - West 4.6 mph - -  
1:20 PM 57.2 °F 39.2 °F 51% 29.92 in 6.2 mi WSW 5.8 mph - N/A   Mostly Cloudy
1:50 PM 60.8 °F 44.6 °F 55% 29.92 in 6.2 mi SSW 3.5 mph - N/A   Mostly Cloudy
2:00 PM 62 °F 43 °F 39% 29.88 in 12 mi SW 4.6 mph - -   Partly Cloudy
2:20 PM 60.8 °F 42.8 °F 52% 29.89 in 6.2 mi SW 6.9 mph - N/A   Mostly Cloudy
2:50 PM 60.8 °F 42.8 °F 52% 29.89 in 6.2 mi West 9.2 mph - N/A   Mostly Cloudy
3:00 PM 63 °F 42 °F 35% 29.87 in - West 16.1 mph - -  
3:20 PM 59.0 °F 42.8 °F 55% 29.89 in 6.2 mi WSW 16.1 mph - N/A   Mostly Cloudy
3:50 PM 59.0 °F 41.0 °F 51% 29.89 in 6.2 mi WSW 16.1 mph - N/A   Mostly Cloudy
4:00 PM 61 °F 40 °F 35% 29.87 in - WSW 17.3 mph - -  
4:20 PM 60.8 °F 42.8 °F 52% 29.89 in 6.2 mi WSW 13.8 mph - N/A   Mostly Cloudy
4:50 PM 60.8 °F 41.0 °F 48% 29.89 in 6.2 mi West 15.0 mph - N/A   Mostly Cloudy
5:20 PM 60.8 °F 41.0 °F 48% 29.89 in 6.2 mi West 15.0 mph - N/A   Mostly Cloudy
5:50 PM 59.0 °F 41.0 °F 51% 29.89 in 6.2 mi WSW 17.3 mph - N/A   Mostly Cloudy
6:00 PM 62 °F 40 °F 33% 29.87 in - West 16.1 mph - -  
6:20 PM 59.0 °F 41.0 °F 51% 29.89 in 6.2 mi WSW 15.0 mph - N/A   Mostly Cloudy
6:50 PM 57.2 °F 41.0 °F 55% 29.89 in 6.2 mi West 15.0 mph - N/A   Scattered Clouds
7:00 PM 60 °F 40 °F 36% 29.88 in - West 18.4 mph - -  
7:20 PM 57.2 °F 39.2 °F 51% 29.89 in 6.2 mi West 17.3 mph - N/A   Scattered Clouds
7:50 PM 55.4 °F 41.0 °F 58% 29.89 in 6.2 mi WSW 12.7 mph - N/A   Scattered Clouds
9:00 PM 56 °F 40 °F 44% 29.91 in - West 15.0 mph - -  
10:00 PM 55 °F 40 °F 45% 29.94 in - West 15.0 mph - -